[[{"header":{"parameterUnit":"m.s-1","parameterCategory":1,"la1":30.2991,"la2":30.254,"lo1":-89.0895,"lo2":-89.0444,"dy":0.0017,"dx":0.0017,"nx":28,"ny":28,"refTime":"2023-07-29T03:00:00:Z","depth":0,"parameterNumber":2,"parameterNumberName":"U-component_of_WINDS"},"data":[0,0,0,0,0,0,0,0,0,0,0,0,0,0,0,0,0,0,0,0,0,0,0,0,0,0,0,0,0,0,0,0,0,0,0,0,0,0,0,0,0,0,0,0,0,0,0,0,0,0,0,0,0,0,0,0,0,0,1.5524,1.5526,0,1.5672,1.5673,1.5675,1.5723,1.5723,1.5722,1.5721,1.5873,1.5878,1.5883,0,0,0,0,0,0,0,0,0,0,0,0,0,1.5285,1.5289,1.5524,1.5526,1.5528,1.5671,1.5673,1.5675,1.5723,1.5723,1.5722,1.5721,1.5872,1.5877,1.5883,0,0,0,0,0,0,0,0,0,0,0,0,0,1.5406,1.529,1.5524,1.5569,1.5574,1.5671,1.5673,1.5676,1.5724,1.5723,1.5722,1.5721,1.587,1.5877,1.5884,1.5946,0,0,1.5905,1.5908,0,0,0,0,0,0,0,0,1.5399,1.5415,1.556,1.5566,1.5572,1.5678,1.5645,1.5767,1.5724,1.5667,1.5721,1.572,1.5809,1.5821,1.5851,1.5953,1.596,1.5906,1.591,1.5913,1.5915,0,0,0,0,0,0,0,1.5391,1.5409,1.5582,1.5562,1.557,1.5582,1.5598,1.5668,1.5742,1.5672,1.5676,1.5692,1.5812,1.5844,1.5855,1.5962,1.5906,1.5912,1.5916,1.5919,1.6123,1.6125,0,0,0,0,0,0,1.5375,1.5401,1.5578,1.5587,1.5482,1.5587,1.5605,1.5645,1.5741,1.5755,1.5693,1.5694,1.5833,1.5847,1.586,1.594,1.5913,1.5919,1.5923,1.6122,1.6124,1.6125,0,0,0,0,0,0,1.5369,1.539,1.5572,1.5495,1.5519,1.5592,1.5637,1.5648,1.568,1.5757,1.5771,1.5712,1.5833,1.5851,1.5925,1.5946,1.5923,1.5929,1.6121,1.6123,1.6124,1.6098,0,0,0,0,0,0,1.5362,1.5388,1.5412,1.5495,1.5523,1.5633,1.5638,1.5652,1.5692,1.5695,1.5778,1.5791,1.5833,1.5914,1.5931,1.5955,1.5934,1.6119,1.6122,1.6124,1.6098,1.6099,1.6101,0,0,0,0,0,1.5353,1.5399,1.5413,1.5434,1.5555,1.5634,1.565,1.5696,1.5694,1.5719,1.5768,1.5789,1.5941,1.5921,1.5941,1.5967,1.6118,1.6121,1.6124,1.6097,1.6099,1.61,0,0,0,0,0,0,1.5315,1.541,1.5427,1.55,1.5559,1.5642,1.5674,1.5697,1.5757,1.5757,1.5813,1.5832,1.5901,1.5942,1.5918,1.6033,1.603,1.6037,1.6003,1.6006,1.6007,1.5995,1.594,0,0,0,0,0,1.5315,1.5371,1.5452,1.5509,1.5537,1.5601,1.5637,1.5668,1.5731,1.5755,1.5811,1.5871,1.5932,1.5972,1.6032,1.6104,1.6123,1.6132,1.6134,1.6134,1.6139,1.6181,1.6185,1.6134,1.6134,1.6134,0,0,1.5316,1.5375,1.5407,1.5502,1.5551,1.5608,1.5621,1.5681,1.5723,1.5765,1.5837,1.588,1.5951,1.6024,1.6059,1.606,1.6158,1.6138,1.6138,1.6143,1.6184,1.6189,1.6193,1.6136,1.6136,1.6136,0,0,1.5346,1.5396,1.5449,1.5498,1.5572,1.5614,1.5627,1.5707,1.5737,1.5811,1.5843,1.5896,1.6,1.605,1.6088,1.6138,1.616,1.6157,1.6164,1.6203,1.6207,1.6211,1.6228,1.6234,1.6162,1.6162,1.6162,0,1.5337,1.5424,1.5474,1.5532,1.5573,1.5614,1.5668,1.5713,1.5803,1.5831,1.583,1.5963,1.6014,1.6099,1.6111,1.6141,1.6158,1.6147,1.6203,1.6207,1.6211,1.6228,1.6235,1.6161,1.6161,1.6161,1.6161,0,1.541,1.547,1.5504,1.559,1.5635,1.5691,1.5749,1.5789,1.5817,1.5859,1.5935,1.5997,1.6071,1.6094,1.6122,1.6184,1.6182,1.6191,1.619,1.6214,1.6231,1.6239,1.616,1.616,1.616,1.616,0,0,1.5418,1.5532,1.5543,1.5583,1.5668,1.5715,1.5774,1.5846,1.5879,1.594,1.599,1.6078,1.6088,1.6132,1.6166,1.6201,1.6236,1.6206,1.6209,1.6209,1.6308,1.6299,1.6306,1.6251,1.6253,1.6254,1.6302,0,1.5459,1.5564,1.5611,1.5695,1.5751,1.5791,1.5842,1.59,1.5941,1.5995,1.6041,1.6102,1.6111,1.6137,1.6174,1.6224,1.6256,1.6221,1.6298,1.63,1.6278,1.6315,1.6306,1.6348,1.6309,1.631,1.6311,0,1.552,1.5581,1.567,1.5749,1.5775,1.5819,1.589,1.5941,1.6008,1.6036,1.6085,1.6117,1.618,1.6176,1.6263,1.6238,1.6273,1.6302,1.6305,1.6313,1.6306,1.6324,1.6363,1.6369,1.6322,1.6321,1.632,0,1.5516,1.5621,1.5689,1.5721,1.5815,1.5846,1.5886,1.5952,1.5993,1.6055,1.6082,1.615,1.6188,1.624,1.629,1.6282,1.6373,1.6373,1.6398,1.6397,1.6415,1.6412,1.6459,1.6438,1.6438,1.6438,1.6438,0,1.5556,1.5609,1.5688,1.5729,1.579,1.5844,1.5903,1.5947,1.6005,1.6056,1.6095,1.6142,1.6206,1.6261,1.6301,1.6367,1.6384,1.6408,1.6418,1.6404,1.6401,1.6427,1.6425,1.644,1.6439,1.6439,1.6439,0,1.5561,1.5617,1.5693,1.5776,1.5798,1.5839,1.591,1.5952,1.5996,1.606,1.6078,1.6147,1.6213,1.6269,1.6357,1.6384,1.6453,1.6465,1.643,1.6435,1.6457,1.6454,1.6521,1.6533,1.6504,1.6504,1.6504,0,1.5582,1.5624,1.5712,1.5749,1.5789,1.5848,1.589,1.5945,1.5987,1.6067,1.6099,1.6169,1.6227,1.6332,1.639,1.6458,1.6471,1.649,1.6482,1.6466,1.6471,1.6467,1.6472,1.649,1.649,1.649,1.6491,0,1.5614,1.564,1.5698,1.5767,1.5816,1.5873,1.5931,1.5959,1.6025,1.6071,1.6139,1.6185,1.6275,1.6343,1.6417,1.646,1.6486,1.6493,1.6502,1.6488,1.6466,1.6478,1.6431,1.6491,1.6491,1.6491,1.6491,1.6491,1.5628,1.5667,1.5735,1.58,1.5849,1.5903,1.5946,1.5996,1.6054,1.6131,1.6161,1.6231,1.6298,1.6399,1.6442,1.6498,1.6501,1.6515,1.6518,1.6521,1.6518,1.6458,1.6512,1.6512,1.6512,1.6512,1.6512,0,1.5661,1.5707,1.5766,1.5846,1.5897,1.5918,1.5983,1.6024,1.6086,1.6146,1.6203,1.6282,1.6349,1.6413,1.6483,1.6516,1.6529,1.6532,1.653,1.6539,1.6512,1.6496,1.652,1.652,1.652,1.652,1.652,1.652,1.5684,1.5751,1.5785,1.5878,1.5924,1.5993,1.6028,1.6078,1.6126,1.6213,1.6269,1.631,1.6372,1.6447,1.6509,1.6526,1.655,1.6549,1.6569,1.6543,1.6541,1.654,1.6525,1.6554,1.6554,1.6592,1.6593,1.6593]},{"header":{"parameterUnit":"m.s-1","parameterCategory":1,"la1":30.2991,"la2":30.254,"lo1":-89.0895,"lo2":-89.0444,"dy":0.0017,"dx":0.0017,"nx":28,"ny":28,"refTime":"2023-07-29T03:00:00:Z","depth":0,"parameterNumber":3,"parameterNumberName":"V-component_of_WINDS"},"data":[0,0,0,0,0,0,0,0,0,0,0,0,0,0,0,0,0,0,0,0,0,0,0,0,0,0,0,0,0,0,0,0,0,0,0,0,0,0,0,0,0,0,0,0,0,0,0,0,0,0,0,0,0,0,0,0,0,0,3.8703,3.8703,0,3.8658,3.8658,3.8657,3.8633,3.8632,3.8632,3.8632,3.8582,3.8581,3.858,0,0,0,0,0,0,0,0,0,0,0,0,0,3.8763,3.8762,3.8703,3.8703,3.8702,3.8659,3.8658,3.8657,3.8633,3.8632,3.8632,3.8632,3.8583,3.8581,3.858,0,0,0,0,0,0,0,0,0,0,0,0,0,3.8729,3.8762,3.8703,3.8685,3.8683,3.8659,3.8658,3.8657,3.8633,3.8632,3.8632,3.8632,3.8583,3.8581,3.8579,3.8569,0,0,3.8574,3.8573,0,0,0,0,0,0,0,0,3.8731,3.8727,3.8688,3.8686,3.8684,3.8651,3.8661,3.8628,3.8633,3.8651,3.8632,3.8632,3.8605,3.8601,3.8593,3.8567,3.8565,3.8573,3.8572,3.8571,3.8571,0,0,0,0,0,0,0,3.8734,3.8729,3.8685,3.8688,3.8685,3.8677,3.8672,3.8654,3.8629,3.865,3.8648,3.8643,3.8604,3.8595,3.8591,3.8564,3.8573,3.8572,3.8571,3.857,3.8525,3.8525,0,0,0,0,0,0,3.874,3.8731,3.8687,3.8684,3.8708,3.8676,3.8671,3.8662,3.8629,3.8624,3.8643,3.8642,3.8598,3.8594,3.859,3.8575,3.8571,3.857,3.8569,3.8525,3.8525,3.8525,0,0,0,0,0,0,3.8741,3.8736,3.8689,3.8707,3.8701,3.8675,3.8665,3.8661,3.8652,3.8624,3.8619,3.8639,3.8598,3.8592,3.8574,3.8572,3.8569,3.8567,3.8525,3.8525,3.8525,3.8545,0,0,0,0,0,0,3.8743,3.8737,3.8734,3.8707,3.87,3.8676,3.8665,3.866,3.8649,3.8647,3.8619,3.8614,3.8597,3.8577,3.8573,3.857,3.8565,3.8525,3.8525,3.8525,3.8544,3.8546,3.8547,0,0,0,0,0,3.8745,3.8741,3.8734,3.8729,3.8696,3.8676,3.8671,3.8653,3.8649,3.8645,3.8627,3.8615,3.8574,3.8576,3.857,3.8567,3.8525,3.8525,3.8525,3.8544,3.8545,3.8547,0,0,0,0,0,0,3.8767,3.8737,3.8729,3.8716,3.8699,3.8672,3.8666,3.8655,3.8638,3.8637,3.8613,3.8607,3.8591,3.8577,3.858,3.8554,3.8548,3.8547,3.8564,3.8565,3.8567,3.857,3.8564,0,0,0,0,0,3.877,3.8758,3.8732,3.8723,3.8715,3.8692,3.8683,3.867,3.8651,3.8643,3.8624,3.8604,3.8586,3.8575,3.8557,3.8542,3.8535,3.8537,3.8538,3.8539,3.8538,3.8527,3.8527,3.8525,3.8525,3.8525,0,0,3.8777,3.8759,3.8752,3.8727,3.8712,3.8698,3.8686,3.8672,3.8661,3.864,3.8622,3.8607,3.8584,3.8567,3.8558,3.8554,3.8537,3.8539,3.854,3.8538,3.8527,3.8527,3.8528,3.8525,3.8525,3.8525,0,0,3.8781,3.8767,3.8758,3.8743,3.8721,3.8706,3.8704,3.8678,3.8667,3.8649,3.8633,3.8618,3.8589,3.8572,3.856,3.8557,3.8545,3.8552,3.8558,3.8547,3.8548,3.8548,3.8545,3.8545,3.8551,3.8551,3.8551,0,3.8792,3.8772,3.8754,3.8741,3.8729,3.8711,3.87,3.8686,3.8659,3.865,3.8647,3.8608,3.8591,3.8569,3.8569,3.856,3.8555,3.8555,3.8549,3.8549,3.8549,3.8546,3.8546,3.8552,3.8552,3.8552,3.8552,0,3.8785,3.8772,3.8766,3.8742,3.8729,3.8717,3.8696,3.8685,3.8673,3.8658,3.8638,3.8617,3.8594,3.8588,3.8576,3.8564,3.8562,3.8554,3.8547,3.855,3.8547,3.8546,3.8553,3.8553,3.8553,3.8552,0,0,3.8803,3.8768,3.8766,3.8754,3.8728,3.8716,3.8702,3.8681,3.8672,3.8653,3.864,3.8615,3.8607,3.8593,3.8578,3.857,3.8567,3.8562,3.8561,3.8563,3.855,3.8556,3.8555,3.8559,3.8558,3.8558,3.8552,0,3.8803,3.878,3.8762,3.8744,3.8731,3.8712,3.87,3.8681,3.8666,3.8651,3.8633,3.8615,3.8607,3.8598,3.8589,3.8569,3.8564,3.857,3.8544,3.8544,3.8551,3.8554,3.856,3.8556,3.8551,3.8551,3.8551,0,3.8801,3.8784,3.8765,3.8739,3.8733,3.8722,3.87,3.8687,3.8664,3.8654,3.8638,3.8623,3.8605,3.86,3.8575,3.8579,3.8567,3.8556,3.8555,3.8552,3.8547,3.855,3.8554,3.8553,3.8549,3.8549,3.8549,0,3.8814,3.8786,3.8771,3.8762,3.8731,3.8724,3.8711,3.8689,3.8677,3.8657,3.8648,3.8627,3.8614,3.8597,3.8575,3.8574,3.8551,3.8545,3.854,3.8541,3.8536,3.8537,3.8538,3.853,3.853,3.853,3.853,0,3.8816,3.8805,3.8777,3.8768,3.8754,3.8733,3.872,3.8704,3.8685,3.8671,3.8653,3.8639,3.8613,3.8595,3.8578,3.8559,3.8553,3.8543,3.8538,3.8544,3.8546,3.8536,3.8536,3.853,3.853,3.853,3.853,0,3.8829,3.881,3.8792,3.8765,3.8758,3.8749,3.8724,3.8713,3.8697,3.8679,3.8674,3.8648,3.8626,3.8603,3.8574,3.8562,3.8543,3.8537,3.8551,3.8549,3.8545,3.8546,3.854,3.8537,3.8532,3.8532,3.8532,0,3.8831,3.8822,3.8794,3.8784,3.8772,3.8756,3.8743,3.8722,3.8709,3.8683,3.8675,3.8652,3.8633,3.86,3.8577,3.8553,3.8546,3.8546,3.8543,3.8548,3.8545,3.8546,3.8544,3.8547,3.8547,3.8547,3.8547,0,3.8837,3.8827,3.8811,3.8791,3.8777,3.876,3.8742,3.8735,3.8709,3.8695,3.8674,3.866,3.863,3.8607,3.8581,3.8565,3.8551,3.8548,3.8546,3.8551,3.856,3.8554,3.8553,3.8548,3.8548,3.8548,3.8548,3.8548,3.8843,3.8834,3.8813,3.8795,3.8779,3.8763,3.8751,3.8734,3.8716,3.8691,3.8679,3.8657,3.8633,3.8597,3.8581,3.8562,3.8558,3.8555,3.8554,3.8553,3.8554,3.8563,3.8558,3.8558,3.8557,3.8557,3.8557,0,3.8847,3.8833,3.8816,3.8792,3.8778,3.8768,3.8747,3.8734,3.8716,3.8696,3.8678,3.8652,3.863,3.8605,3.858,3.857,3.8563,3.8564,3.8564,3.856,3.856,3.8564,3.857,3.857,3.857,3.857,3.857,3.857,3.8848,3.8831,3.8819,3.8794,3.8779,3.8759,3.8748,3.8732,3.8715,3.8688,3.867,3.8655,3.8632,3.8605,3.8583,3.8576,3.8567,3.857,3.8562,3.8562,3.8561,3.856,3.8563,3.8569,3.8569,3.8563,3.8563,3.8563]}]]